Find Local Weather

World > North America > United States > Indiana

Winamac, Indiana Regional Weather

Lat: 41.05N, Lon: 86.6W
Wx Zone: INZ013
Warning FLW WEATHER ALERT - (More Info. Click Here) Warning
Feedback
Expires:201807181000;;658435
ASUS43 KIND 180909
RWRIN 

WEATHER ROUNDUP FOR INDIANA
NATIONAL WEATHER SERVICE INDIANAPOLIS IN
500 AM EDT WED JUL 18 2018

NOTE: "FAIR" INDICATES FEW OR NO CLOUDS BELOW 12,000 FEET WITH NO
SIGNIFICANT WEATHER AND/OR OBSTRUCTIONS TO VISIBILITY.

* - STATION DOES NOT REPORT WEATHER SUCH AS PRECIPITATION OR FOG.

+ - STATION NOT QUALITY CONTROLLED BY THE NATIONAL WEATHER SERVICE.
    USE DATA WITH CAUTION...ESPECIALLY DEWPOINT AND RELATIVE
    HUMIDITY OBSERVATIONS.


INZ001>003-010>013-019-020-181000-
NORTHWEST INDIANA
  
CITY           SKY/WX    TMP DP  RH WIND       PRES   REMARKS
GARY /AIRPORT/ FAIR      67  57  70 E3        30.12S                  
KNOX *+        FAIR      50  50 100 NW3       30.10S                  
LA PORTE +     FAIR      55  52  89 CALM      30.12S                  
MICHIGAN CITY+ FAIR      54  54 100 CALM      30.12S                  
MONTICELLO +   FAIR      53  51  95 N5        30.10R                  
RENSSELAER +   FAIR      57  50  77 CALM      30.12R                  
VALPARAISO     FAIR      61  54  77 N5        30.12S                  

$$


SKY/WX - Weather  TMP - Temperature  DP - Dewpoint  RH - Relative Humidity
WIND - Wind Direction/Speed PRES - Barometric Pressure